This demonstration page uses our WeatherBlox Daily Observations layout. Learn more.

38.89511, -77.03637

Hourly Observations for August 16, 2015

Temp ( °F °C ) Dew Point ( °F °C ) Humidity (%) Winds ( mph kmh ) Pressure ( in mb ) Visibility ( mi km ) Precip ( " mm )
12:52 am 00:52 Clear 73 23 63 17 69 69 SSW 5 7 30.18 1022 10 16.09344 0 0
1:52 am 01:52 Mostly Clear 72 22 64 18 78 78 SSW 6 9 30.18 1022 10 16.09344 0 0
2:52 am 02:52 Mostly Clear 72 22 63 17 73 73 SSW 6 9 30.15 1021 10 16.09344 0 0
3:52 am 03:52 Mostly Clear 70 21 63 17 78 78 SSW 5 7 30.15 1021 10 16.09344 0 0
4:52 am 04:52 Mostly Clear 70 21 63 17 78 78 Calm 30.15 1021 10 16.09344 0 0
5:52 am 05:52 Partly Cloudy 70 21 63 17 78 78 Calm 30.15 1021 10 16.09344 0 0
6:52 am 06:52 Partly Cloudy 70 21 63 17 78 78 SSW 5 7 30.15 1021 10 16.09344 0 0
7:46 am 07:46 Partly Cloudy 72 22 64 18 78 78 SSW 5 7 30.15 1021 10 16.09344 0 0
7:52 am 07:52 Partly Cloudy 72 22 64 18 78 78 SSW 3 6 30.18 1022 10 16.09344 0 0
8:52 am 08:52 Partly Cloudy 75 24 66 19 74 74 S 7 11 30.18 1022 10 16.09344 0 0
9:52 am 09:52 Partly Cloudy 77 25 66 19 69 69 SSE 5 7 30.18 1022 10 16.09344 0 0
10:52 am 10:52 Partly Cloudy 81 27 66 19 62 62 SSE 7 11 30.18 1022 10 16.09344 0 0
11:52 am 11:52 Partly Cloudy 84 29 70 21 62 62 SSE 7 11 30.15 1021 10 16.09344 0 0
12:52 pm 12:52 Partly Cloudy 88 31 68 20 52 52 S 9 15 30.15 1021 10 16.09344 0 0
1:52 pm 13:52 Partly Cloudy 90 32 64 18 43 43 S 9 15 30.15 1021 10 16.09344 0 0
2:52 pm 14:52 Partly Cloudy 91 33 59 15 34 34 S 7 11 30.12 1020 10 16.09344 0 0
3:52 pm 15:52 Partly Cloudy 93 34 55 13 28 28 S 7 11 30.12 1020 10 16.09344 0 0
4:52 pm 16:52 Partly Cloudy 91 33 63 17 38 38 S 9 15 30.09 1019 10 16.09344 0 0
5:52 pm 17:52 Partly Cloudy 90 32 68 20 49 49 S 14 22 30.09 1019 10 16.09344 0 0
6:52 pm 18:52 Mostly Sunny 88 31 64 18 46 46 S 12 19 30.09 1019 10 16.09344 0 0
7:52 pm 19:52 Mostly Sunny 84 29 64 18 51 51 S 12 19 30.09 1019 10 16.09344 0 0
8:52 pm 20:52 Mostly Clear 82 28 66 19 58 58 S 8 13 30.12 1020 10 16.09344 0 0
9:52 pm 21:52 Mostly Clear 81 27 64 18 58 58 S 10 17 30.12 1020 10 16.09344 0 0
10:52 pm 22:52 Mostly Clear 77 25 66 19 69 69 SSW 7 11 30.12 1020 10 16.09344 0 0
11:52 pm 23:52 Mostly Clear 77 25 66 19 69 69 SSW 7 11 30.12 1020 10 16.09344 0 0

Powered by AerisWeather